• în România
  • Lista ţărilor
  • Pe 7 zile
  • Temperatura apei
  • Hartă satelitară
  • Meteo pe hartă
  • Widget-uri
  • user-avatar
    Intrare

    Meteo pe oră la Komintern

    Astăzi, 19 August, Duminică

    Timp Temperatura Precipitaţii Vânt Presiune Umiditate
    00:00 +16°C° 0 mm 3 m/s 762 mmHg 68%
    01:00 +14°C° 0 mm 3 m/s 762 mmHg 70%
    02:00 +14°C° 0 mm 3 m/s 762 mmHg 73%
    03:00 +14°C° 0 mm 2 m/s 762 mmHg 78%
    04:00 +14°C° 0 mm 2 m/s 762 mmHg 77%
    05:00 +13°C° 0 mm 3 m/s 762 mmHg 77%
    06:00 +13°C° 0 mm 3 m/s 762 mmHg 76%
    07:00 +15°C° 0 mm 4 m/s 762 mmHg 69%
    08:00 +18°C° 0 mm 4 m/s 762 mmHg 61%
    09:00 +20°C° 0 mm 4 m/s 762 mmHg 50%
    10:00 +21°C° 0 mm 4 m/s 762 mmHg 47%
    11:00 +22°C° 0 mm 4 m/s 762 mmHg 43%
    12:00 +23°C° 0 mm 5 m/s 762 mmHg 39%
    13:00 +23°C° 0 mm 5 m/s 762 mmHg 39%
    14:00 +23°C° 0 mm 5 m/s 761 mmHg 38%
    15:00 +25°C° 0 mm 4 m/s 761 mmHg 38%
    16:00 +23°C° 0 mm 4 m/s 761 mmHg 41%
    17:00 +22°C° 0 mm 4 m/s 761 mmHg 44%
    18:00 +22°C° 0 mm 3 m/s 761 mmHg 47%
    19:00 +20°C° 0 mm 3 m/s 761 mmHg 52%
    20:00 +19°C° 0 mm 2 m/s 761 mmHg 57%
    21:00 +17°C° 0 mm 2 m/s 761 mmHg 61%
    22:00 +17°C° 0 mm 2 m/s 761 mmHg 63%
    23:00 +16°C° 0 mm 1 m/s 761 mmHg 65%

    Mâine, 20 August, Luni

    Timp Temperatura Precipitaţii Vânt Presiune Umiditate
    00:00 +15°C° 0 mm 1 m/s 761 mmHg 67%
    01:00 +15°C° 0 mm 1 m/s 761 mmHg 68%
    02:00 +15°C° 0 mm 1 m/s 761 mmHg 69%
    03:00 +14°C° 0 mm 1 m/s 761 mmHg 71%
    04:00 +15°C° 0 mm 1 m/s 761 mmHg 70%
    05:00 +15°C° 0 mm 1 m/s 761 mmHg 70%
    06:00 +14°C° 0 mm 0 m/s 761 mmHg 70%
    07:00 +18°C° 0 mm 1 m/s 761 mmHg 64%
    08:00 +20°C° 0 mm 1 m/s 761 mmHg 57%
    09:00 +22°C° 0 mm 1 m/s 762 mmHg 51%
    10:00 +23°C° 0 mm 1 m/s 761 mmHg 48%
    11:00 +24°C° 0 mm 1 m/s 761 mmHg 44%
    12:00 +25°C° 0 mm 1 m/s 761 mmHg 41%
    13:00 +26°C° 0 mm 2 m/s 761 mmHg 39%
    14:00 +26°C° 0 mm 2 m/s 760 mmHg 38%
    15:00 +27°C° 0 mm 2 m/s 760 mmHg 36%
    16:00 +27°C° 0 mm 2 m/s 760 mmHg 38%
    17:00 +26°C° 0 mm 1 m/s 759 mmHg 40%
    18:00 +26°C° 0 mm 1 m/s 759 mmHg 42%
    19:00 +24°C° 0 mm 1 m/s 759 mmHg 45%
    20:00 +23°C° 0 mm 1 m/s 759 mmHg 48%
    21:00 +22°C° 0 mm 1 m/s 759 mmHg 50%
    22:00 +20°C° 0 mm 2 m/s 759 mmHg 52%
    23:00 +20°C° 0 mm 2 m/s 759 mmHg 53%

    Poimâine, 21 August, Marţi

    Timp Temperatura Precipitaţii Vânt Presiune Umiditate
    00:00 +19°C° 0 mm 2 m/s 759 mmHg 54%
    01:00 +19°C° 0 mm 2 m/s 759 mmHg 55%
    02:00 +18°C° 0 mm 2 m/s 759 mmHg 57%
    03:00 +18°C° 0 mm 2 m/s 759 mmHg 58%
    04:00 +18°C° 0 mm 2 m/s 759 mmHg 59%
    05:00 +18°C° 0 mm 2 m/s 759 mmHg 59%
    06:00 +18°C° 0 mm 2 m/s 759 mmHg 60%
    07:00 +20°C° 0 mm 3 m/s 759 mmHg 54%
    08:00 +22°C° 0 mm 3 m/s 759 mmHg 48%
    09:00 +26°C° 0 mm 3 m/s 759 mmHg 42%
    10:00 +27°C° 0 mm 4 m/s 758 mmHg 39%
    11:00 +28°C° 0 mm 4 m/s 758 mmHg 37%
    12:00 +29°C° 0 mm 4 m/s 758 mmHg 34%
    13:00 +30°C° 0 mm 4 m/s 757 mmHg 33%
    14:00 +30°C° 0 mm 5 m/s 757 mmHg 33%
    15:00 +30°C° 0 mm 5 m/s 756 mmHg 32%
    16:00 +29°C° 0 mm 4 m/s 756 mmHg 35%
    17:00 +29°C° 0 mm 4 m/s 756 mmHg 38%
    18:00 +28°C° 0 mm 3 m/s 756 mmHg 40%
    19:00 +26°C° 0 mm 3 m/s 756 mmHg 42%
    20:00 +25°C° 0 mm 3 m/s 755 mmHg 44%
    21:00 +22°C° 0 mm 3 m/s 755 mmHg 45%
    22:00 +22°C° 0 mm 3 m/s 755 mmHg 45%
    23:00 +22°C° 0 mm 3 m/s 755 mmHg 45%

    22 August, Miercuri

    Timp Temperatura Precipitaţii Vânt Presiune Umiditate
    00:00 +21°C° 0 mm 4 m/s 755 mmHg 45%
    01:00 +21°C° 0 mm 4 m/s 755 mmHg 44%
    02:00 +21°C° 0 mm 4 m/s 754 mmHg 44%
    03:00 +20°C° 0 mm 4 m/s 754 mmHg 43%
    04:00 +20°C° 0 mm 4 m/s 754 mmHg 43%
    05:00 +20°C° 0 mm 4 m/s 754 mmHg 43%
    06:00 +20°C° 0 mm 4 m/s 754 mmHg 43%
    07:00 +21°C° 0,1 mm 5 m/s 754 mmHg 43%
    08:00 +23°C° 0,1 mm 5 m/s 754 mmHg 43%
    09:00 +24°C° 0,1 mm 6 m/s 754 mmHg 43%
    10:00 +23°C° 0,5 mm 5 m/s 754 mmHg 53%
    11:00 +22°C° 0,5 mm 5 m/s 754 mmHg 62%
    12:00 +22°C° 0,5 mm 4 m/s 754 mmHg 71%
    13:00 +22°C° 0,1 mm 5 m/s 754 mmHg 64%
    14:00 +23°C° 0,1 mm 5 m/s 754 mmHg 58%
    15:00 +25°C° 0,1 mm 5 m/s 754 mmHg 52%
    16:00 +25°C° 0 mm 5 m/s 755 mmHg 51%
    17:00 +23°C° 0 mm 6 m/s 755 mmHg 50%
    18:00 +22°C° 0 mm 6 m/s 755 mmHg 48%
    19:00 +21°C° 0 mm 6 m/s 756 mmHg 54%
    20:00 +19°C° 0 mm 5 m/s 757 mmHg 60%
    21:00 +17°C° 0 mm 5 m/s 757 mmHg 65%
    22:00 +16°C° 0 mm 5 m/s 758 mmHg 67%
    23:00 +15°C° 0 mm 4 m/s 758 mmHg 69%

    23 August, Joi

    Timp Temperatura Precipitaţii Vânt Presiune Umiditate
    00:00 +15°C° 0 mm 4 m/s 759 mmHg 71%
    01:00 +14°C° 0 mm 4 m/s 759 mmHg 71%
    02:00 +13°C° 0 mm 4 m/s 759 mmHg 71%
    03:00 +13°C° 0 mm 4 m/s 760 mmHg 71%
    04:00 +13°C° 0 mm 4 m/s 760 mmHg 70%
    05:00 +12°C° 0 mm 4 m/s 761 mmHg 69%
    06:00 +12°C° 0 mm 4 m/s 761 mmHg 68%
    07:00 +14°C° 0 mm 4 m/s 761 mmHg 63%
    08:00 +15°C° 0 mm 5 m/s 762 mmHg 57%
    09:00 +17°C° 0 mm 5 m/s 762 mmHg 52%
    10:00 +19°C° 0 mm 5 m/s 762 mmHg 48%
    11:00 +20°C° 0 mm 5 m/s 762 mmHg 44%
    12:00 +21°C° 0 mm 5 m/s 762 mmHg 40%
    13:00 +21°C° 0 mm 5 m/s 762 mmHg 39%
    14:00 +22°C° 0 mm 4 m/s 762 mmHg 38%
    15:00 +22°C° 0 mm 4 m/s 762 mmHg 37%
    16:00 +21°C° 0 mm 4 m/s 762 mmHg 40%
    17:00 +21°C° 0 mm 4 m/s 762 mmHg 44%
    18:00 +20°C° 0 mm 3 m/s 762 mmHg 47%
    19:00 +19°C° 0 mm 3 m/s 763 mmHg 51%
    20:00 +17°C° 0 mm 3 m/s 763 mmHg 56%
    21:00 +16°C° 0 mm 3 m/s 764 mmHg 60%
    22:00 +16°C° 0 mm 2 m/s 764 mmHg 63%
    23:00 +15°C° 0 mm 2 m/s 764 mmHg 65%

    24 August, Vineri

    Timp Temperatura Precipitaţii Vânt Presiune Umiditate
    00:00 +14°C° 0 mm 2 m/s 764 mmHg 68%
    01:00 +14°C° 0 mm 2 m/s 764 mmHg 69%
    02:00 +13°C° 0 mm 2 m/s 764 mmHg 71%
    03:00 +13°C° 0 mm 2 m/s 764 mmHg 73%
    04:00 +13°C° 0 mm 2 m/s 765 mmHg 73%
    05:00 +13°C° 0 mm 2 m/s 765 mmHg 73%
    06:00 +13°C° 0 mm 1 m/s 765 mmHg 72%
    07:00 +15°C° 0 mm 2 m/s 765 mmHg 65%
    08:00 +17°C° 0 mm 2 m/s 765 mmHg 58%
    09:00 +19°C° 0 mm 2 m/s 765 mmHg 51%
    10:00 +20°C° 0 mm 2 m/s 765 mmHg 47%
    11:00 +21°C° 0 mm 2 m/s 765 mmHg 42%
    12:00 +23°C° 0 mm 2 m/s 765 mmHg 37%
    13:00 +24°C° 0 mm 2 m/s 765 mmHg 35%
    14:00 +24°C° 0 mm 2 m/s 764 mmHg 34%
    15:00 +25°C° 0 mm 2 m/s 764 mmHg 32%
    16:00 +24°C° 0 mm 2 m/s 764 mmHg 35%
    17:00 +24°C° 0 mm 1 m/s 764 mmHg 38%
    18:00 +23°C° 0 mm 1 m/s 764 mmHg 40%
    19:00 +22°C° 0 mm 1 m/s 764 mmHg 42%
    20:00 +21°C° 0 mm 1 m/s 764 mmHg 45%
    21:00 +19°C° 0 mm 1 m/s 764 mmHg 47%
    22:00 +19°C° 0 mm 1 m/s 764 mmHg 48%
    23:00 +19°C° 0 mm 1 m/s 764 mmHg 50%
    Arată mai mult